Location: Puerto Pe�asco
(31.3170°N, 113.5330°W)
Time: 09:21:59
(UTC-07:00)

Daily predictions for brighter satellites

Satellite Brightness Start Highest point End
(mag) Time Altitude Azimuth Time Altitude Azimuth Time Altitude Azimuth
BREEZE-M DEB (TANK) 2.1 19:06:47 10° SW 19:09:07 86° SE 19:12:53 10° NE
ASTRO F (AKARI) 4.4 19:07:50 10° N 19:10:58 79° WNW 19:14:10 10° SSW
Cosmos 1821 Rocket 4.2 19:07:05 10° SSE 19:13:15 53° E 19:19:25 10° NNE
Meteor 2-5 Rocket 4.0 19:08:06 10° N 19:13:40 51° E 19:19:20 10° SSE
ALOS 2.8 19:09:35 10° SE 19:13:51 37° ENE 19:18:09 10° N
Cosmos 1766 4.2 19:11:24 10° SSE 19:14:36 25° E 19:17:48 10° NE
Cosmos 1812 Rocket 4.0 19:10:59 10° SSE 19:15:07 39° E 19:19:13 10° NNE
Cosmos 858 Rocket 4.5 19:10:12 10° S 19:15:25 78° ESE 19:20:44 10° NNE
Geosat 4.4 19:11:25 10° NE 19:16:09 40° ESE 19:20:49 10° S
NOSS 3-4 (A) 4.0 19:08:57 10° NNW 19:16:10 88° ENE 19:23:47 10° SSE
NOSS 3-4 (C) 3.9 19:09:03 10° NNW 19:16:16 87° ENE 19:23:54 10° SSE
Resurs 01 Rocket 2.8 19:13:08 10° SE 19:16:38 24° ENE 19:20:10 10° NNE
RESURS DK-1 4.4 19:18:33 10° NNE 19:20:17 12° ENE 19:22:00 10° E
SL-27 R/B 4.4 19:21:07 10° NE 19:22:54 13° ENE 19:24:14 11° E
Cosmos 1937 Rocket 3.5 19:18:29 10° S 19:23:41 76° ESE 19:28:57 10° NNE
Meteor 2-15 Rocket 4.5 19:20:15 10° N 19:26:26 90° E 19:32:33 10° S
Cosmos 1680 Rocket 4.1 19:22:29 10° NNW 19:27:40 61° WSW 19:32:47 10° S
Lacrosse 5 1.8 19:22:58 10° SSW 19:28:02 79° SE 19:33:06 10° NE
COSMOS 2406 3.3 19:22:42 10° NNW 19:28:23 60° ENE 19:33:58 10° SSE
Cosmos 1605 Rocket 4.5 19:25:36 10° SSE 19:31:15 38° E 19:36:59 10° NNE
Cosmos 2298 Rocket 4.4 19:26:21 10° SSW 19:31:36 71° WNW 19:36:55 10° NNE
Delta 2 Rocket 4.1 19:29:12 10° WNW 19:33:50 48° N 19:37:14 14° ENE
Delta 168 4.3 19:32:22 10° SSW 19:34:50 17° S 19:36:28 13° SE
SeaSat 1 2.4 19:30:52 10° SE 19:35:44 67° ENE 19:40:38 10° NNW
FREGAT/IRIS 3.1 19:33:59 10° S 19:37:01 65° W 19:40:04 10° NNW
Cosmos 1844 4.0 19:31:20 10° SSW 19:37:03 74° WNW 19:42:51 10° NNE
Delta 128 4.3 19:36:52 10° SW 19:40:59 36° SSE 19:43:40 19° ESE
Cosmos 1000 Rocket 4.4 19:35:36 10° N 19:41:47 84° E 19:48:01 10° S
CZ-2D R/B 3.9 19:42:19 14° SE 19:45:10 33° ENE 19:48:40 10° N
CZ-3B DEB 4.1 19:31:31 10° SW 19:45:14 57° NW 19:51:29 10° NNE
Cosmos 2123 Rocket 4.1 19:43:32 10° N 19:49:40 52° E 19:55:44 10° SSE
Cosmos 1805 3.8 19:47:37 10° SSE 19:51:11 35° E 19:54:45 10° NNE
Helios 1A 4.0 19:50:45 23° E 19:51:49 26° ENE 19:55:18 10° NNE
Cosmos 1437 Rocket 4.1 19:50:31 10° SSW 19:54:17 43° W 19:58:08 10° N
Cosmos 1867 4.1 19:49:53 10° S 19:54:43 34° ESE 19:59:34 10° NE
Helios 1B rocket 2.8 19:51:05 10° NNE 19:55:00 41° E 19:58:52 10° S
SJ-6B 3.8 19:51:29 10° S 19:55:05 45° W 19:58:40 10° NNW
Lacrosse 4 Rocket 4.0 19:56:58 10° WSW 20:00:07 21° WNW 20:03:17 10° N
Resurs 1-3 3.5 19:59:41 10° SSE 20:04:02 74° ENE 20:08:26 10° N
Yuri Rocket 3.1 20:04:13 10° W 20:08:19 57° S 20:09:36 39° SE
SWIFT 4.3 20:06:41 10° SW 20:09:32 17° S 20:10:36 16° SSE
Cosmos 372 Rocket 4.4 20:06:24 10° SSE 20:11:01 36° E 20:15:41 10° NE
GPS 2-05 Rocket1 3.0 20:11:03 10° SW 20:14:33 53° SSE 20:14:33 53° SSE
Cosmos 1758 3.1 20:11:28 10° S 20:15:23 65° E 20:19:21 10° NNE
Spot 2 Rocket 3.6 20:11:40 10° S 20:16:45 75° WSW 20:21:52 10° NNW
SAR-Lupe-4 3.5 20:19:40 65° ENE 20:19:40 65° ENE 20:23:06 10° N
Tiangong 1 3.2 20:18:43 10° NNW 20:20:14 18° N 20:20:14 18° N
In-Cosmos 22 3.9 20:18:46 10° N 20:24:06 83° E 20:27:42 21° S
Cosmos 1953 2.2 20:21:34 10° S 20:25:38 82° E 20:29:42 10° N
Cosmos 1447 Rocket 4.4 20:23:10 10° N 20:29:14 59° E 20:31:29 38° SE
Cosmos 2278 Rocket 3.3 20:24:23 10° SW 20:29:48 45° WNW 20:35:14 10° N
H-2A R/B 4.3 20:26:18 10° SSW 20:29:51 35° W 20:33:27 10° NNW
Cosmos 1459 Rocket 4.2 20:29:44 43° ESE 20:30:29 45° E 20:36:22 10° NNE
Delta 2 Rocket 4.4 20:26:03 10° W 20:32:25 47° SSW 20:34:03 38° SSE
Cosmos 2173 Rocket 4.1 20:32:36 45° E 20:32:39 45° E 20:38:31 10° NNE
USA 215 3.7 20:27:03 10° NE 20:33:29 62° NW 20:39:52 10° WSW
Envisat 3.0 20:34:42 55° ENE 20:34:42 55° ENE 20:39:37 10° N
Cosmos 1833 Rocket 4.0 20:30:58 10° N 20:34:23 24° NE 20:34:23 24° NE
Okean 3 Rocket 3.6 20:31:19 10° N 20:35:42 77° W 20:36:56 46° S
Cosmos 1125 Rocket 3.6 20:36:04 10° SSW 20:41:14 75° WNW 20:46:26 10° NNE
Cosmos 2297 3.7 20:36:24 10° SSW 20:42:05 85° WNW 20:47:51 10° NNE
Meteor 1-4 Rocket 4.4 20:48:51 26° NNW 20:48:51 26° NNW 20:50:42 10° N
GP-B 3.4 20:52:13 65° WNW 20:52:13 65° WNW 20:56:23 10° N
Resurs 01 Rocket 3.9 20:49:31 10° SSW 20:52:59 23° W 20:56:28 10° NW
ATLAS 5 CENTAUR R/B 3.9 20:49:22 10° SSW 20:50:05 15° SSW 20:50:05 15° SSW
RESURS DK-1 3.6 20:54:36 10° NW 20:58:05 40° W 20:58:05 40° W
ERS-1 Rocket 4.4 21:03:31 27° N 21:03:31 27° N 21:05:55 10° N
Cosmos 2082 Rocket 3.0 20:59:41 10° N 21:03:31 39° NNE 21:03:31 39° NNE
Cosmos 1818 4.4 21:02:56 10° NNW 21:06:41 42° N 21:06:41 42° N
Cosmos 2100 Rocket 4.2 21:13:07 38° SSW 21:15:34 67° W 21:21:54 10° N
